DAL3067 KLAS-KDEN

Flight info

Callsign DAL3067
Flight time 1h 26m
Altitude 35000
Route GIDGT2 TUKRR BUMMP SSKII3
Aircraft A321/M-SDE3FGHIRWY/LB1

Departure

Time 2026-05-06 05:09
Airport Harry Reid International Airport (KLAS)

Arrival

Time 2026-05-06 06:35
Airport Denver International Airport (KDEN)
Time Latitude Longitude Altitude Speed Heading
2026-05-06 04:36 36.08061 -115.14061 2094 ft 0 kts 125°
2026-05-06 04:55 36.08072 -115.14081 2094 ft 4 kts 125°
2026-05-06 04:55 36.08088 -115.14109 2094 ft 4 kts 125°
2026-05-06 04:55 36.08102 -115.14134 2094 ft 2 kts 125°
2026-05-06 04:55 36.08116 -115.14155 2095 ft 4 kts 156°
2026-05-06 04:56 36.08137 -115.14159 2095 ft 4 kts 180°
2026-05-06 04:56 36.08150 -115.14159 2095 ft 0 kts 180°
2026-05-06 04:59 36.08124 -115.14159 2095 ft 5 kts 180°
2026-05-06 04:59 36.08093 -115.14159 2095 ft 6 kts 180°
2026-05-06 05:00 36.08044 -115.14159 2095 ft 7 kts 180°
2026-05-06 05:00 36.07999 -115.14159 2095 ft 6 kts 180°
2026-05-06 05:00 36.07960 -115.14159 2095 ft 5 kts 180°
2026-05-06 05:00 36.07926 -115.14159 2095 ft 5 kts 180°
2026-05-06 05:01 36.07894 -115.14159 2095 ft 7 kts 180°
2026-05-06 05:01 36.07836 -115.14143 2094 ft 8 kts 132°
2026-05-06 05:01 36.07826 -115.14077 2094 ft 9 kts 88°
2026-05-06 05:01 36.07828 -115.13988 2093 ft 10 kts 88°
2026-05-06 05:02 36.07828 -115.13909 2093 ft 8 kts 91°
2026-05-06 05:02 36.07827 -115.13840 2093 ft 8 kts 91°
2026-05-06 05:02 36.07826 -115.13757 2093 ft 10 kts 90°
2026-05-06 05:02 36.07826 -115.13678 2092 ft 9 kts 90°
2026-05-06 05:03 36.07826 -115.13595 2092 ft 9 kts 90°
2026-05-06 05:03 36.07827 -115.13513 2091 ft 11 kts 90°
2026-05-06 05:03 36.07827 -115.13407 2090 ft 12 kts 90°
2026-05-06 05:03 36.07827 -115.13299 2088 ft 13 kts 90°
2026-05-06 05:04 36.07827 -115.13182 2085 ft 14 kts 90°
2026-05-06 05:04 36.07827 -115.13099 2082 ft 15 kts 90°
2026-05-06 05:04 36.07827 -115.12958 2072 ft 18 kts 90°
2026-05-06 05:04 36.07827 -115.12793 2069 ft 20 kts 90°
2026-05-06 05:05 36.07828 -115.12619 2062 ft 17 kts 90°
2026-05-06 05:05 36.07827 -115.12470 2058 ft 15 kts 89°
2026-05-06 05:05 36.07828 -115.12337 2055 ft 16 kts 90°
2026-05-06 05:05 36.07813 -115.12242 2052 ft 9 kts 126°
2026-05-06 05:06 36.07768 -115.12176 2050 ft 10 kts 129°
2026-05-06 05:06 36.07748 -115.12146 2049 ft 0 kts 129°
2026-05-06 05:07 36.07743 -115.12139 2049 ft 4 kts 131°
2026-05-06 05:07 36.07713 -115.12124 2053 ft 6 kts 173°
2026-05-06 05:07 36.07652 -115.12125 2048 ft 6 kts 182°
2026-05-06 05:08 36.07640 -115.12140 2048 ft 1 kts 247°
2026-05-06 05:08 36.07640 -115.12213 2051 ft 25 kts 269°
2026-05-06 05:08 36.07639 -115.12719 2068 ft 89 kts 270°
2026-05-06 05:08 36.07640 -115.13709 2093 ft 139 kts 270°
2026-05-06 05:09 36.07640 -115.15076 2111 ft 177 kts 269°
2026-05-06 05:09 36.07640 -115.16637 2537 ft 182 kts 264°
2026-05-06 05:09 36.07632 -115.18197 3211 ft 180 kts 268°
2026-05-06 05:09 36.07617 -115.19733 3849 ft 178 kts 268°
2026-05-06 05:10 36.07611 -115.21241 4375 ft 180 kts 268°
2026-05-06 05:10 36.07612 -115.22900 4532 ft 200 kts 269°
2026-05-06 05:10 36.07617 -115.24689 4774 ft 213 kts 269°
2026-05-06 05:10 36.07679 -115.26518 5198 ft 220 kts 280°
2026-05-06 05:11 36.08472 -115.28149 5653 ft 234 kts 319°
2026-05-06 05:11 36.10000 -115.29027 5988 ft 252 kts 342°
2026-05-06 05:11 36.11716 -115.29557 6640 ft 255 kts 347°
2026-05-06 05:11 36.13479 -115.29735 7367 ft 256 kts
2026-05-06 05:12 36.15152 -115.29014 8116 ft 258 kts 30°
2026-05-06 05:12 36.16540 -115.27501 8473 ft 277 kts 54°
2026-05-06 05:12 36.17470 -115.25379 9101 ft 284 kts 66°
2026-05-06 05:12 36.18183 -115.23092 9820 ft 286 kts 66°
2026-05-06 05:13 36.18902 -115.20757 10297 ft 299 kts 69°
2026-05-06 05:13 36.19429 -115.18160 10430 ft 323 kts 78°
2026-05-06 05:13 36.19633 -115.15287 10555 ft 347 kts 87°
2026-05-06 05:13 36.19632 -115.12212 10677 ft 367 kts 88°
2026-05-06 05:14 36.19632 -115.08981 10833 ft 383 kts 88°
2026-05-06 05:14 36.19630 -115.05659 11327 ft 389 kts 88°
2026-05-06 05:14 36.19628 -115.02304 11914 ft 391 kts 88°
2026-05-06 05:14 36.19628 -114.98917 12515 ft 394 kts 88°
2026-05-06 05:15 36.19626 -114.95505 13123 ft 397 kts 88°
2026-05-06 05:15 36.19622 -114.92079 13684 ft 399 kts 88°
2026-05-06 05:15 36.19617 -114.88627 14191 ft 402 kts 88°
2026-05-06 05:15 36.19612 -114.85168 14744 ft 402 kts 88°
2026-05-06 05:16 36.19607 -114.81702 15268 ft 404 kts 88°
2026-05-06 05:16 36.19602 -114.78220 15757 ft 406 kts 88°
2026-05-06 05:16 36.19595 -114.74717 16241 ft 408 kts 88°
2026-05-06 05:16 36.19587 -114.71191 16717 ft 411 kts 88°
2026-05-06 05:17 36.19578 -114.67643 17222 ft 413 kts 88°
2026-05-06 05:17 36.19568 -114.64077 17698 ft 416 kts 88°
2026-05-06 05:17 36.19560 -114.60490 18158 ft 418 kts 88°
2026-05-06 05:17 36.19553 -114.56879 18568 ft 421 kts 88°
2026-05-06 05:18 36.19546 -114.53250 18983 ft 423 kts 88°
2026-05-06 05:18 36.19535 -114.49607 19399 ft 424 kts 88°
2026-05-06 05:18 36.19524 -114.45950 19843 ft 425 kts 88°
2026-05-06 05:18 36.19512 -114.42284 20275 ft 427 kts 87°
2026-05-06 05:19 36.19498 -114.38606 20712 ft 428 kts 87°
2026-05-06 05:19 36.19482 -114.34914 21155 ft 429 kts 87°
2026-05-06 05:19 36.19464 -114.31217 21582 ft 430 kts 87°
2026-05-06 05:19 36.19445 -114.27507 22006 ft 432 kts 87°
2026-05-06 05:20 36.19499 -114.23785 22388 ft 432 kts 82°
2026-05-06 05:20 36.19898 -114.20107 22766 ft 432 kts 78°
2026-05-06 05:20 36.20338 -114.16474 23174 ft 433 kts 78°
2026-05-06 05:20 36.20785 -114.12735 23538 ft 435 kts 78°
2026-05-06 05:21 36.21225 -114.09024 23853 ft 436 kts 78°
2026-05-06 05:21 36.21668 -114.05301 24199 ft 438 kts 78°
2026-05-06 05:21 36.22113 -114.01561 24514 ft 440 kts 78°
2026-05-06 05:21 36.22553 -113.97859 24835 ft 441 kts 78°
2026-05-06 05:22 36.23001 -113.94094 25137 ft 442 kts 78°
2026-05-06 05:22 36.23443 -113.90340 25569 ft 439 kts 78°
2026-05-06 05:22 36.23877 -113.86600 26011 ft 437 kts 78°
2026-05-06 05:22 36.24308 -113.82885 26434 ft 435 kts 78°
2026-05-06 05:23 36.24738 -113.79189 26872 ft 432 kts 78°
2026-05-06 05:23 36.25082 -113.76237 27211 ft 431 kts 78°
2026-05-06 05:23 36.25937 -113.68911 28002 ft 429 kts 77°
2026-05-06 05:24 36.26359 -113.65261 28446 ft 427 kts 77°
2026-05-06 05:24 36.26776 -113.61628 28890 ft 424 kts 77°
2026-05-06 05:24 36.27190 -113.58021 29320 ft 422 kts 77°
2026-05-06 05:24 36.27602 -113.54425 29735 ft 420 kts 77°
2026-05-06 05:25 36.28010 -113.50848 30112 ft 419 kts 77°
2026-05-06 05:25 36.28415 -113.47278 30437 ft 418 kts 77°
2026-05-06 05:25 36.28819 -113.43715 30744 ft 417 kts 77°
2026-05-06 05:25 36.29224 -113.40152 31018 ft 418 kts 77°
2026-05-06 05:26 36.29631 -113.36578 31292 ft 419 kts 76°
2026-05-06 05:26 36.30037 -113.33005 31506 ft 419 kts 77°
2026-05-06 05:26 36.30439 -113.29423 31786 ft 420 kts 78°
2026-05-06 05:26 36.30842 -113.25838 32060 ft 420 kts 78°
2026-05-06 05:27 36.31440 -113.22306 32310 ft 418 kts 70°
2026-05-06 05:27 36.32458 -113.18949 32530 ft 416 kts 63°
2026-05-06 05:27 36.33612 -113.15716 32827 ft 415 kts 63°
2026-05-06 05:27 36.34781 -113.12409 33199 ft 413 kts 63°
2026-05-06 05:28 36.35912 -113.09192 33517 ft 412 kts 63°
2026-05-06 05:28 36.37060 -113.05920 33736 ft 414 kts 63°
2026-05-06 05:28 36.38210 -113.02638 33953 ft 415 kts 63°
2026-05-06 05:28 36.39364 -112.99345 34135 ft 417 kts 64°
2026-05-06 05:29 36.40527 -112.96037 34298 ft 419 kts 64°
2026-05-06 05:29 36.41672 -112.92781 34467 ft 421 kts 64°
2026-05-06 05:29 36.42845 -112.89439 34620 ft 423 kts 64°
2026-05-06 05:29 36.44020 -112.86084 34783 ft 425 kts 64°
2026-05-06 05:30 36.45202 -112.82709 34892 ft 427 kts 64°
2026-05-06 05:30 36.46389 -112.79312 34916 ft 429 kts 64°
2026-05-06 05:30 36.48763 -112.72489 34916 ft 431 kts 64°
2026-05-06 05:31 36.51145 -112.65633 34918 ft 432 kts 64°
2026-05-06 05:31 36.53523 -112.58772 34916 ft 432 kts 64°
2026-05-06 05:32 36.55902 -112.51903 34915 ft 432 kts 64°
2026-05-06 05:32 36.58273 -112.45028 34921 ft 433 kts 64°
2026-05-06 05:33 36.60627 -112.38191 34915 ft 433 kts 64°
2026-05-06 05:33 36.62996 -112.31300 34909 ft 433 kts 65°
2026-05-06 05:34 36.65368 -112.24391 34911 ft 434 kts 65°
2026-05-06 05:34 36.67735 -112.17475 34893 ft 434 kts 65°
2026-05-06 05:35 36.70096 -112.10552 34891 ft 435 kts 65°
2026-05-06 05:35 36.72469 -112.03595 34854 ft 437 kts 65°
2026-05-06 05:36 36.74841 -111.96617 34852 ft 438 kts 65°
2026-05-06 05:36 36.77207 -111.89602 34817 ft 439 kts 65°
2026-05-06 05:37 36.79579 -111.82586 34817 ft 439 kts 65°
2026-05-06 05:37 36.81959 -111.75550 34791 ft 441 kts 65°
2026-05-06 05:38 36.84346 -111.68468 34781 ft 443 kts 66°
2026-05-06 05:38 36.87189 -111.61663 34782 ft 442 kts 57°
2026-05-06 05:39 36.90319 -111.55116 34937 ft 441 kts 57°
2026-05-06 05:39 36.93449 -111.48534 34942 ft 440 kts 57°
2026-05-06 05:40 36.96579 -111.41950 34943 ft 440 kts 57°
2026-05-06 05:40 36.99702 -111.35368 34932 ft 440 kts 57°
2026-05-06 05:41 37.02821 -111.28781 34896 ft 440 kts 58°
2026-05-06 05:41 37.05934 -111.22179 34861 ft 440 kts 58°
2026-05-06 05:42 37.09044 -111.15577 34812 ft 440 kts 58°
2026-05-06 05:42 37.12156 -111.08965 34764 ft 441 kts 58°
2026-05-06 05:43 37.15268 -111.02332 34751 ft 442 kts 58°
2026-05-06 05:43 37.18391 -110.95676 34753 ft 443 kts 58°
2026-05-06 05:44 37.21511 -110.89016 34753 ft 444 kts 58°
2026-05-06 05:44 37.24629 -110.82326 34735 ft 444 kts 58°
2026-05-06 05:45 37.27745 -110.75639 34759 ft 444 kts 58°
2026-05-06 05:45 37.30856 -110.68949 34762 ft 444 kts 57°
2026-05-06 05:46 37.33948 -110.62295 34758 ft 444 kts 58°
2026-05-06 05:46 37.37051 -110.55592 34764 ft 444 kts 58°
2026-05-06 05:47 37.40149 -110.48883 34751 ft 444 kts 58°
2026-05-06 05:47 37.43248 -110.42162 34751 ft 445 kts 58°
2026-05-06 05:48 37.46351 -110.35429 34744 ft 445 kts 58°
2026-05-06 05:48 37.49447 -110.28671 34754 ft 446 kts 58°
2026-05-06 05:49 37.52547 -110.21903 34756 ft 446 kts 58°
2026-05-06 05:49 37.55654 -110.15129 34769 ft 446 kts 58°
2026-05-06 05:50 37.58756 -110.08344 34767 ft 448 kts 58°
2026-05-06 05:50 37.61850 -110.01527 34765 ft 448 kts 58°
2026-05-06 05:51 37.64952 -109.94693 34767 ft 449 kts 58°
2026-05-06 05:51 37.68056 -109.87854 34774 ft 449 kts 58°
2026-05-06 05:52 37.71159 -109.81003 34778 ft 449 kts 58°
2026-05-06 05:52 37.74261 -109.74143 34780 ft 451 kts 58°
2026-05-06 05:53 37.76839 -109.68417 34852 ft 451 kts 59°
2026-05-06 05:53 37.79943 -109.61508 34859 ft 452 kts 59°
2026-05-06 05:54 37.83055 -109.54583 34854 ft 453 kts 59°
2026-05-06 05:54 37.86163 -109.47644 34837 ft 453 kts 59°
2026-05-06 05:55 37.89270 -109.40684 34817 ft 455 kts 59°
2026-05-06 05:55 37.92384 -109.33706 34783 ft 456 kts 59°
2026-05-06 05:56 37.95501 -109.26712 34781 ft 456 kts 59°
2026-05-06 05:56 37.98616 -109.19698 34773 ft 457 kts 59°
2026-05-06 05:57 38.01728 -109.12661 34778 ft 458 kts 59°
2026-05-06 05:57 38.04849 -109.05611 34782 ft 459 kts 59°
2026-05-06 05:58 38.07946 -108.98591 34773 ft 459 kts 59°
2026-05-06 05:58 38.11035 -108.91487 34773 ft 460 kts 61°
2026-05-06 05:59 38.13927 -108.84231 34765 ft 461 kts 63°
2026-05-06 05:59 38.16721 -108.76907 34775 ft 461 kts 63°
2026-05-06 06:00 38.19551 -108.69581 34776 ft 462 kts 62°
2026-05-06 06:00 38.21936 -108.63493 34773 ft 463 kts 62°
2026-05-06 06:01 38.24388 -108.57242 34768 ft 464 kts 62°
2026-05-06 06:01 38.27258 -108.49885 34781 ft 464 kts 62°
2026-05-06 06:02 38.30121 -108.42518 34795 ft 464 kts 62°
2026-05-06 06:02 38.32989 -108.35134 34784 ft 466 kts 62°
2026-05-06 06:03 38.35857 -108.27720 34781 ft 467 kts 63°
2026-05-06 06:03 38.38723 -108.20274 34829 ft 469 kts 63°
2026-05-06 06:04 38.41602 -108.12794 34869 ft 470 kts 63°
2026-05-06 06:04 38.44483 -108.05304 34918 ft 471 kts 63°
2026-05-06 06:05 38.47355 -107.97790 34945 ft 471 kts 63°
2026-05-06 06:05 38.50200 -107.90249 34950 ft 472 kts 63°
2026-05-06 06:06 38.53039 -107.82694 34945 ft 472 kts 63°
2026-05-06 06:06 38.54459 -107.78915 34792 ft 472 kts 63°
2026-05-06 06:06 38.55879 -107.75132 34790 ft 472 kts 63°
2026-05-06 06:07 38.58724 -107.67562 34790 ft 473 kts 63°
2026-05-06 06:07 38.61570 -107.59975 34788 ft 474 kts 63°
2026-05-06 06:08 38.64399 -107.52410 34794 ft 475 kts 63°
2026-05-06 06:08 38.67265 -107.44739 34807 ft 475 kts 63°
2026-05-06 06:09 38.70148 -107.37124 34801 ft 477 kts 63°
2026-05-06 06:09 38.73056 -107.29481 34808 ft 478 kts 63°
2026-05-06 06:10 38.75949 -107.21842 34800 ft 481 kts 63°
2026-05-06 06:10 38.78848 -107.14110 34794 ft 481 kts 63°
2026-05-06 06:11 38.81739 -107.06380 34795 ft 481 kts 63°
2026-05-06 06:11 38.84636 -106.98636 34783 ft 482 kts 63°
2026-05-06 06:12 38.87532 -106.90869 34768 ft 483 kts 63°
2026-05-06 06:12 38.90427 -106.83076 34796 ft 484 kts 63°
2026-05-06 06:13 38.93320 -106.75275 34807 ft 484 kts 63°
2026-05-06 06:13 38.96220 -106.67455 34816 ft 485 kts 63°
2026-05-06 06:14 38.99118 -106.59600 34785 ft 487 kts 63°
2026-05-06 06:14 39.02017 -106.51717 34849 ft 488 kts 64°
2026-05-06 06:15 39.04914 -106.43813 34898 ft 490 kts 64°
2026-05-06 06:15 39.06343 -106.39894 34695 ft 490 kts 64°
2026-05-06 06:15 39.07787 -106.35925 34257 ft 490 kts 64°
2026-05-06 06:16 39.09237 -106.31931 33213 ft 497 kts 63°
2026-05-06 06:16 39.10698 -106.27913 32664 ft 493 kts 63°
2026-05-06 06:16 39.12142 -106.23928 32086 ft 489 kts 63°
2026-05-06 06:16 39.13573 -106.19967 31576 ft 485 kts 62°
2026-05-06 06:17 39.14984 -106.16065 30883 ft 474 kts 62°
2026-05-06 06:17 39.16364 -106.12246 29759 ft 466 kts 61°
2026-05-06 06:17 39.17712 -106.08499 28541 ft 457 kts 61°
2026-05-06 06:17 39.19035 -106.04808 27359 ft 450 kts 62°
2026-05-06 06:18 39.20343 -106.01153 26497 ft 448 kts 62°
2026-05-06 06:18 39.21647 -105.97514 25889 ft 446 kts 62°
2026-05-06 06:18 39.22947 -105.93887 25312 ft 443 kts 63°
2026-05-06 06:18 39.24240 -105.90283 24704 ft 443 kts 63°
2026-05-06 06:19 39.25525 -105.86711 24283 ft 437 kts 63°
2026-05-06 06:19 39.26800 -105.83175 23824 ft 433 kts 63°
2026-05-06 06:19 39.28064 -105.79678 23387 ft 429 kts 63°
2026-05-06 06:19 39.29320 -105.76204 22980 ft 425 kts 63°
2026-05-06 06:20 39.30574 -105.72737 22572 ft 434 kts 63°
2026-05-06 06:20 39.31888 -105.69135 22170 ft 444 kts 63°
2026-05-06 06:20 39.33189 -105.65564 21784 ft 435 kts 63°
2026-05-06 06:20 39.34467 -105.62052 21448 ft 427 kts 63°
2026-05-06 06:21 39.35720 -105.58607 21054 ft 420 kts 63°
2026-05-06 06:21 39.36950 -105.55219 20671 ft 413 kts 63°
2026-05-06 06:21 39.38161 -105.51874 20295 ft 409 kts 63°
2026-05-06 06:21 39.39354 -105.48569 19976 ft 403 kts 62°
2026-05-06 06:22 39.40527 -105.45308 19611 ft 397 kts 63°
2026-05-06 06:22 39.41396 -105.41941 19246 ft 394 kts 76°
2026-05-06 06:22 39.41707 -105.38435 18886 ft 390 kts 89°
2026-05-06 06:22 39.41721 -105.34949 18572 ft 386 kts 89°
2026-05-06 06:23 39.41736 -105.31502 18200 ft 381 kts 89°
2026-05-06 06:23 39.41754 -105.28092 17799 ft 376 kts 89°
2026-05-06 06:23 39.41772 -105.24770 17398 ft 364 kts 89°
2026-05-06 06:23 39.41789 -105.21541 17034 ft 354 kts 89°
2026-05-06 06:24 39.41806 -105.18383 16649 ft 349 kts 89°
2026-05-06 06:24 39.41822 -105.15301 16269 ft 346 kts 89°
2026-05-06 06:24 39.41836 -105.12208 15887 ft 342 kts 89°
2026-05-06 06:24 39.41848 -105.09143 15474 ft 340 kts 90°
2026-05-06 06:25 39.41859 -105.06072 15011 ft 341 kts 90°
2026-05-06 06:25 39.41869 -105.03013 14560 ft 341 kts 90°
2026-05-06 06:25 39.41887 -104.96637 13069 ft 358 kts 90°
2026-05-06 06:26 39.41961 -104.93479 12926 ft 346 kts 86°
2026-05-06 06:26 39.42166 -104.90450 12546 ft 331 kts 84°
2026-05-06 06:26 39.42422 -104.87513 12224 ft 326 kts 83°
2026-05-06 06:26 39.42698 -104.84627 11897 ft 317 kts 83°
2026-05-06 06:27 39.42964 -104.81893 11608 ft 298 kts 83°
2026-05-06 06:27 39.43218 -104.79250 11319 ft 294 kts 83°
2026-05-06 06:27 39.43486 -104.76653 11053 ft 289 kts 78°
2026-05-06 06:27 39.44133 -104.74258 10991 ft 275 kts 68°
2026-05-06 06:28 39.44839 -104.72063 10994 ft 258 kts 65°
2026-05-06 06:28 39.45813 -104.70156 10993 ft 253 kts 46°
2026-05-06 06:28 39.47197 -104.68770 10992 ft 252 kts 27°
2026-05-06 06:28 39.48836 -104.68013 10997 ft 251 kts 14°
2026-05-06 06:29 39.50527 -104.67432 10996 ft 251 kts 13°
2026-05-06 06:29 39.52213 -104.66849 10995 ft 251 kts 14°
2026-05-06 06:29 39.53921 -104.66409 10985 ft 250 kts
2026-05-06 06:29 39.55668 -104.66363 10630 ft 252 kts
2026-05-06 06:30 39.57396 -104.66352 10257 ft 251 kts
2026-05-06 06:30 39.59134 -104.66338 9911 ft 248 kts
2026-05-06 06:30 39.60845 -104.66318 9577 ft 244 kts
2026-05-06 06:30 39.62533 -104.66298 9265 ft 240 kts
2026-05-06 06:31 39.64175 -104.66279 9029 ft 231 kts
2026-05-06 06:31 39.65727 -104.66261 8913 ft 216 kts
2026-05-06 06:31 39.67194 -104.66243 8644 ft 208 kts
2026-05-06 06:31 39.68632 -104.66226 8362 ft 204 kts
2026-05-06 06:32 39.70043 -104.66208 8094 ft 202 kts
2026-05-06 06:32 39.71438 -104.66192 7822 ft 200 kts
2026-05-06 06:32 39.72826 -104.66175 7553 ft 198 kts
2026-05-06 06:32 39.74194 -104.66159 7294 ft 197 kts
2026-05-06 06:33 39.75561 -104.66142 7029 ft 196 kts
2026-05-06 06:33 39.76856 -104.66129 6807 ft 175 kts
2026-05-06 06:33 39.78018 -104.66116 6572 ft 160 kts
2026-05-06 06:33 39.79106 -104.66102 6309 ft 153 kts
2026-05-06 06:34 39.80160 -104.66088 6058 ft 149 kts
2026-05-06 06:34 39.81196 -104.66075 5840 ft 148 kts
2026-05-06 06:34 39.82222 -104.66063 5617 ft 147 kts
2026-05-06 06:34 39.83241 -104.66050 5414 ft 146 kts
2026-05-06 06:35 39.84202 -104.66036 5364 ft 124 kts
2026-05-06 06:35 39.84862 -104.66029 5364 ft 68 kts
2026-05-06 06:35 39.85135 -104.66051 5363 ft 27 kts 344°
2026-05-06 06:35 39.85273 -104.66138 5366 ft 7 kts 330°
2026-05-06 06:36 39.85328 -104.66192 5366 ft 18 kts 327°
2026-05-06 06:36 39.85473 -104.66234 5365 ft 20 kts
2026-05-06 06:36 39.85563 -104.66242 5364 ft 10 kts 331°
2026-05-06 06:36 39.85585 -104.66316 5365 ft 9 kts 271°
2026-05-06 06:37 39.85584 -104.66431 5366 ft 12 kts 270°
2026-05-06 06:37 39.85585 -104.66525 5366 ft 8 kts 271°
2026-05-06 06:37 39.85585 -104.66591 5366 ft 7 kts 271°
2026-05-06 06:37 39.85586 -104.66659 5366 ft 8 kts 271°
2026-05-06 06:38 39.85587 -104.66724 5366 ft 7 kts 270°
2026-05-06 06:38 39.85587 -104.66813 5366 ft 12 kts 270°
2026-05-06 06:38 39.85588 -104.66913 5366 ft 10 kts 270°
2026-05-06 06:38 39.85588 -104.67002 5366 ft 9 kts 269°
2026-05-06 06:39 39.85588 -104.67078 5366 ft 8 kts 271°
2026-05-06 06:39 39.85590 -104.67153 5362 ft 9 kts 271°
2026-05-06 06:39 39.85590 -104.67230 5366 ft 8 kts 270°
2026-05-06 06:39 39.85590 -104.67311 5366 ft 10 kts 270°
2026-05-06 06:40 39.85591 -104.67395 5366 ft 10 kts 271°
2026-05-06 06:40 39.85591 -104.67502 5366 ft 9 kts 264°
2026-05-06 06:40 39.85562 -104.67548 5365 ft 6 kts 221°
2026-05-06 06:40 39.85531 -104.67575 5365 ft 5 kts 203°
2026-05-06 06:41 39.85493 -104.67581 5365 ft 0 kts 180°
2026-05-06 06:41 39.85490 -104.67586 5364 ft 2 kts 227°
2026-05-06 06:41 39.85481 -104.67614 5365 ft 5 kts 234°
2026-05-06 06:41 39.85458 -104.67617 5365 ft 2 kts 152°
2026-05-06 06:42 39.85439 -104.67604 5365 ft 2 kts 153°
2026-05-06 06:42 39.85435 -104.67601 5364 ft 0 kts 153°